Notices

What's New in latest Release from April 7th, 2021:

- Updated Glossary, including Speed of Maximum Gust, and Total Hourly Precipitation

- Updated national and regional climate services offices contacts and prices information

- Addition of station inventory lists for 1981-2010, 1971-2000, and 1961-1990 Normals.

If you haven't already, please take our survey and provide feedback about our website: https://eccc.sondage-survey.ca/f/LanguageSelection.aspx?s=442ca660-fcf1-47c0-95a9-59707d6fd709

Hourly Data Report for January 17, 2021

EDMUNDSTON
NEW BRUNSWICK
Current Station Operator: ECCC - MSC

47°25'00.000" N
68°19'28.040" W
154.20 m
8101303
71590
ERM

Download Data

Hourly Data (January 2021)
Hourly Data Report for January 17, 2021
TIME
LST
Temp Definition
°C
Dew Point Definition
°C
Rel Hum Definition
%
Precip. Amount Definition
mm

Wind Dir Definition
10's deg

Wind Spd Definition
km/h
Visibility Definition
km
Stn Press Definition
kPa
Hmdx Definition


Wind Chill Definition


Weather Definition


00:00 -1.3 -2.6 91 2.0 10 6   97.43   -4 LegendNANA
01:00 -1.6 -2.7 92 1.5 8 5   97.31   -3 LegendNANA
02:00 -1.5 -2.7 92 1.2 7 7   97.16   -4 LegendNANA
03:00 -1.2 -2.4 91 0.6 9 3   96.97   -2 LegendNANA
04:00 -0.6 -2.0 90 0.3 9 5   96.90   -2 LegendNANA
05:00 -0.2 -2.0 88 0.0 13 3   96.77   -1 LegendNANA
06:00 0.0 -2.1 86 0.0 9 8   96.68   -3 LegendNANA
07:00 -0.5 -1.7 91 0.9 5 5   96.60   -2 LegendNANA
08:00 -0.7 -1.9 91 0.4 22 3   96.59   -2 LegendNANA
09:00 -0.5 -2.1 89 0.2 7 1   96.51   -1 LegendNANA
10:00 -0.4 -1.6 92 0.0 24 4   96.46   -2 LegendNANA
11:00 -0.1 -1.4 91 0.0 29 5   96.42   -2 LegendNANA
12:00 -0.3 -0.9 95 0.7 28 5   96.33   -2 LegendNANA
13:00 -0.1 -1.1 93 0.5 29 8   96.27   -3 LegendNANA
14:00 -0.1 -0.9 94 0.6 28 10   96.27   -3 LegendNANA
15:00 -0.1 -0.9 94 0.7 29 8   96.30   -3 LegendNANA
16:00 0.1 -1.4 89 0.2 28 10   96.36     LegendNANA
17:00 0.0 -1.9 87 0.0 29 16   96.47   -5 LegendNANA
18:00 -0.1 -1.9 88 0.0 27 11   96.59   -4 LegendNANA
19:00 -0.2 -2.0 88 0.0 27 9   96.66   -3 LegendNANA
20:00 -0.7 -1.9 91 0.3 27 9   96.73   -4 LegendNANA
21:00 -0.6 -2.4 88 0.3 27 10   96.79   -4 LegendNANA
22:00 -0.7 -2.8 86 0.0 26 10   96.85   -4 LegendNANA
23:00 -1.0 -3.2 85 0.0 27 9   96.95   -4 LegendNANA

Notes on Data Quality.

Legend

  • E = Estimated
  • M = Missing
  • NA = Not Available*
  • [empty] = Indicates an unobserved value
Date modified: